When you browse on this site, cookies collect data to enhance your experience and personalize the content and advertising you see.
Visit our Privacy Policy to learn more. By continuing to use the site, you agree to this use of cookies and data.
  • en Suisse
  • Liste des pays
  • À 7 jours
  • Température de l'eau
  • Carte météo
  • Widgets météo
  • user-avatar
    Se connecter

    Météo par heure à Exeter

    Ce jour, 14 Décembre, Samedi

    Heure Température Précipitation Vent Pression Humidité
    00:00 +5°C° 0 mm 9 m/s 732 mmHg 81%
    01:00 +5°C° 0 mm 9 m/s 733 mmHg 78%
    02:00 +3°C° 0 mm 9 m/s 734 mmHg 74%
    03:00 +3°C° 0 mm 9 m/s 734 mmHg 71%
    04:00 +3°C° 0.2 mm 9 m/s 734 mmHg 77%
    05:00 +2°C° 0.2 mm 8 m/s 735 mmHg 83%
    06:00 +3°C° 0 mm 6 m/s 735 mmHg 95%
    07:00 +4°C° 0.4 mm 8 m/s 735 mmHg 88%
    08:00 +3°C° 0.4 mm 10 m/s 735 mmHg 81%
    09:00 +4°C° 0.4 mm 12 m/s 736 mmHg 74%
    10:00 +4°C° 0 mm 11 m/s 736 mmHg 71%
    11:00 +5°C° 0 mm 10 m/s 737 mmHg 68%
    12:00 +5°C° 0 mm 8 m/s 738 mmHg 69%
    13:00 +5°C° 0 mm 8 m/s 738 mmHg 70%
    14:00 +5°C° 0 mm 7 m/s 737 mmHg 71%
    15:00 +5°C° 0 mm 6 m/s 737 mmHg 72%
    16:00 +5°C° 0.2 mm 7 m/s 736 mmHg 76%
    17:00 +5°C° 0.2 mm 8 m/s 735 mmHg 80%
    18:00 +5°C° 0.2 mm 9 m/s 734 mmHg 85%
    19:00 +5°C° 0.6 mm 8 m/s 734 mmHg 85%
    20:00 +5°C° 0.6 mm 8 m/s 733 mmHg 85%
    21:00 +5°C° 0.6 mm 7 m/s 733 mmHg 85%
    22:00 +5°C° 1.4 mm 8 m/s 733 mmHg 83%
    23:00 +4°C° 1.4 mm 8 m/s 733 mmHg 81%

    Demain, 15 Décembre, Dimanche

    Heure Température Précipitation Vent Pression Humidité
    00:00 +2°C° 1.4 mm 8 m/s 733 mmHg 79%
    01:00 +2°C° 0 mm 8 m/s 734 mmHg 78%
    02:00 +2°C° 0 mm 8 m/s 735 mmHg 77%
    03:00 +2°C° 0 mm 8 m/s 736 mmHg 75%
    04:00 +2°C° 0 mm 8 m/s 736 mmHg 78%
    05:00 +2°C° 0 mm 8 m/s 736 mmHg 81%
    06:00 +2°C° 0 mm 8 m/s 737 mmHg 84%
    07:00 +2°C° 0.1 mm 8 m/s 737 mmHg 83%
    08:00 +3°C° 0.1 mm 7 m/s 738 mmHg 82%
    09:00 +3°C° 0.1 mm 7 m/s 738 mmHg 80%
    10:00 +4°C° 0 mm 8 m/s 738 mmHg 77%
    11:00 +5°C° 0 mm 8 m/s 739 mmHg 75%
    12:00 +6°C° 0 mm 9 m/s 739 mmHg 72%
    13:00 +6°C° 0.1 mm 9 m/s 739 mmHg 73%
    14:00 +5°C° 0.1 mm 8 m/s 739 mmHg 74%
    15:00 +5°C° 0.1 mm 8 m/s 739 mmHg 76%
    16:00 +5°C° 0.5 mm 8 m/s 739 mmHg 79%
    17:00 +5°C° 0.5 mm 9 m/s 739 mmHg 83%
    18:00 +3°C° 0.5 mm 9 m/s 739 mmHg 87%
    19:00 +4°C° 0.1 mm 8 m/s 739 mmHg 86%
    20:00 +4°C° 0.1 mm 6 m/s 739 mmHg 85%
    21:00 +3°C° 0.1 mm 5 m/s 739 mmHg 84%
    22:00 +3°C° 0.1 mm 5 m/s 739 mmHg 85%
    23:00 +4°C° 0.1 mm 4 m/s 739 mmHg 87%

    Après-demain, 16 Décembre, Lundi

    Heure Température Précipitation Vent Pression Humidité
    00:00 +3°C° 0.1 mm 4 m/s 740 mmHg 88%
    01:00 +3°C° 0 mm 3 m/s 740 mmHg 88%
    02:00 +3°C° 0 mm 3 m/s 739 mmHg 88%
    03:00 +4°C° 0 mm 2 m/s 739 mmHg 87%
    04:00 +4°C° 0 mm 2 m/s 740 mmHg 88%
    05:00 +4°C° 0 mm 2 m/s 740 mmHg 89%
    06:00 +4°C° 0 mm 2 m/s 740 mmHg 90%
    07:00 +4°C° 0 mm 2 m/s 740 mmHg 89%
    08:00 +5°C° 0 mm 1 m/s 740 mmHg 89%
    09:00 +5°C° 0 mm 1 m/s 741 mmHg 89%
    10:00 +6°C° 0 mm 1 m/s 741 mmHg 85%
    11:00 +7°C° 0 mm 1 m/s 741 mmHg 82%
    12:00 +7°C° 0 mm 2 m/s 741 mmHg 78%
    13:00 +8°C° 0 mm 1 m/s 740 mmHg 80%
    14:00 +8°C° 0 mm 1 m/s 740 mmHg 81%
    15:00 +7°C° 0 mm 1 m/s 740 mmHg 82%
    16:00 +7°C° 0 mm 1 m/s 740 mmHg 83%
    17:00 +6°C° 0 mm 1 m/s 740 mmHg 83%
    18:00 +5°C° 0 mm 0 m/s 740 mmHg 84%
    19:00 +5°C° 0 mm 0 m/s 741 mmHg 84%
    20:00 +5°C° 0 mm 0 m/s 741 mmHg 83%
    21:00 +5°C° 0 mm 0 m/s 742 mmHg 83%
    22:00 +5°C° 0 mm 1 m/s 742 mmHg 83%
    23:00 +5°C° 0 mm 1 m/s 742 mmHg 83%

    17 Décembre, Mardi

    Heure Température Précipitation Vent Pression Humidité
    00:00 +5°C° 0 mm 1 m/s 742 mmHg 83%
    01:00 +4°C° 0 mm 2 m/s 742 mmHg 84%
    02:00 +4°C° 0 mm 2 m/s 742 mmHg 85%
    03:00 +3°C° 0 mm 2 m/s 742 mmHg 86%
    04:00 +3°C° 0 mm 2 m/s 742 mmHg 86%
    05:00 +3°C° 0 mm 2 m/s 743 mmHg 87%
    06:00 +2°C° 0 mm 2 m/s 743 mmHg 87%
    07:00 +2°C° 0 mm 2 m/s 743 mmHg 85%
    08:00 +2°C° 0 mm 2 m/s 744 mmHg 84%
    09:00 +3°C° 0 mm 1 m/s 744 mmHg 82%
    10:00 +4°C° 0 mm 1 m/s 745 mmHg 80%
    11:00 +6°C° 0 mm 1 m/s 745 mmHg 77%
    12:00 +6°C° 0 mm 2 m/s 745 mmHg 74%
    13:00 +7°C° 0 mm 1 m/s 745 mmHg 76%
    14:00 +6°C° 0 mm 1 m/s 746 mmHg 78%
    15:00 +6°C° 0 mm 1 m/s 746 mmHg 80%
    16:00 +5°C° 0 mm 1 m/s 746 mmHg 80%
    17:00 +4°C° 0 mm 1 m/s 746 mmHg 81%
    18:00 +3°C° 0 mm 1 m/s 747 mmHg 82%
    19:00 +3°C° 0 mm 1 m/s 747 mmHg 81%
    20:00 +3°C° 0 mm 1 m/s 748 mmHg 81%
    21:00 +3°C° 0 mm 1 m/s 748 mmHg 80%
    22:00 +3°C° 0 mm 1 m/s 748 mmHg 79%
    23:00 +3°C° 0 mm 1 m/s 748 mmHg 78%

    18 Décembre, Mercredi

    Heure Température Précipitation Vent Pression Humidité
    00:00 +3°C° 0 mm 1 m/s 749 mmHg 76%
    01:00 +3°C° 0 mm 1 m/s 749 mmHg 76%
    02:00 +3°C° 0 mm 1 m/s 749 mmHg 76%
    03:00 +3°C° 0 mm 1 m/s 749 mmHg 76%
    04:00 +3°C° 0 mm 1 m/s 749 mmHg 76%
    05:00 +2°C° 0 mm 2 m/s 749 mmHg 77%
    06:00 +2°C° 0 mm 2 m/s 748 mmHg 78%
    07:00 +2°C° 0 mm 3 m/s 748 mmHg 79%
    08:00 +1°C° 0 mm 4 m/s 748 mmHg 81%
    09:00 +2°C° 0 mm 5 m/s 748 mmHg 82%
    10:00 +3°C° 0 mm 6 m/s 748 mmHg 80%
    11:00 +4°C° 0 mm 7 m/s 748 mmHg 78%
    12:00 +5°C° 0 mm 8 m/s 747 mmHg 76%
    13:00 +5°C° 0 mm 8 m/s 746 mmHg 78%
    14:00 +4°C° 0 mm 8 m/s 746 mmHg 79%
    15:00 +4°C° 0 mm 8 m/s 745 mmHg 80%
    16:00 +4°C° 0 mm 8 m/s 744 mmHg 81%
    17:00 +4°C° 0 mm 8 m/s 744 mmHg 81%
    18:00 +4°C° 0 mm 8 m/s 743 mmHg 82%
    19:00 +4°C° 0.3 mm 8 m/s 743 mmHg 85%
    20:00 +5°C° 0.3 mm 9 m/s 742 mmHg 87%
    21:00 +5°C° 0.3 mm 9 m/s 742 mmHg 90%
    22:00 +5°C° 0.5 mm 9 m/s 741 mmHg 91%
    23:00 +5°C° 0.5 mm 8 m/s 740 mmHg 93%

    19 Décembre, Jeudi

    Heure Température Précipitation Vent Pression Humidité
    00:00 +6°C° 0.5 mm 8 m/s 740 mmHg 95%
    01:00 +6°C° 0.3 mm 8 m/s 739 mmHg 95%
    02:00 +6°C° 0.3 mm 7 m/s 738 mmHg 95%
    03:00 +8°C° 0.3 mm 7 m/s 738 mmHg 96%
    04:00 +8°C° 2 mm 7 m/s 737 mmHg 95%
    05:00 +7°C° 2 mm 8 m/s 736 mmHg 95%
    06:00 +9°C° 2 mm 8 m/s 736 mmHg 95%
    07:00 +9°C° 0.2 mm 8 m/s 736 mmHg 93%
    08:00 +9°C° 0.2 mm 8 m/s 736 mmHg 92%
    09:00 +7°C° 0.2 mm 8 m/s 736 mmHg 90%
    10:00 +7°C° 0.3 mm 9 m/s 736 mmHg 89%
    11:00 +7°C° 0.3 mm 10 m/s 737 mmHg 88%
    12:00 +6°C° 0.3 mm 10 m/s 737 mmHg 87%
    13:00 +6°C° 0.1 mm 8 m/s 738 mmHg 87%
    14:00 +8°C° 0.1 mm 6 m/s 738 mmHg 87%
    15:00 +8°C° 0.1 mm 5 m/s 738 mmHg 87%
    16:00 +7°C° 0 mm 4 m/s 738 mmHg 89%
    17:00 +7°C° 0 mm 3 m/s 739 mmHg 91%
    18:00 +7°C° 0 mm 3 m/s 739 mmHg 93%
    19:00 +6°C° 0 mm 2 m/s 739 mmHg 93%
    20:00 +6°C° 0 mm 2 m/s 738 mmHg 93%
    21:00 +6°C° 0 mm 2 m/s 738 mmHg 93%
    22:00 +6°C° 0 mm 2 m/s 738 mmHg 93%
    23:00 +6°C° 0 mm 2 m/s 738 mmHg 93%
    Voir plus